Regional Weather Roundup
Issued by NWS Sioux Falls, SD

Home | Current Version | Previous Version | Graphics & Text | Print | Product List | Glossary Off
Versions: 1 2 3 4 5 6 7 8 9 10 11 12 13 14 15 16 17 18 19 20 21 22 23 24 25 26 27 28 29 30 31 32 33 34 35 36 37 38 39 40 41 42 43 44 45 46 47 48 49 50

000
ASUS43 KFSD 261710
RWRFSD

WEATHER ROUNDUP FOR SE SOUTH DAKOTA/SW MINNESOTA/NW IOWA
NATIONAL WEATHER SERVICE SIOUX FALLS SD
1100 AM CST THU FEB 26 2015

NOTE: "FAIR" INDICATES FEW OR NO CLOUDS BELOW 12,000 FEET WITH NO
SIGNIFICANT WEATHER AND OR OBSTRUCTIONS TO VISIBILITY.


SDZ038>040-050-052>070-261800-
SOUTHEAST SOUTH DAKOTA

CITY           SKY/WX    TMP DP  RH WIND       PRES   REMARKS
CHAMBERLAIN    PTSUNNY    3  -5  67 NW15      30.54R WCI -15
HURON          SUNNY     -2 -10  69 N12       30.57S WCI -20
MADISON        FAIR      -2  -8  78 NW17      30.47R WCI -24
MITCHELL       SUNNY      3  -5  69 N15       30.57R WCI -16
SIOUX FALLS    MOSUNNY    1  -8  66 N14       30.50R WCI -17
WINNER         CLOUDY     5  -6  60 N12       30.51R HAZE    WCI -11
YANKTON        SUNNY      5  -2  72 NW16G23   30.55R WCI -14
$$

MNZ071-072-080-081-089-090-097-098-261800-
SOUTHWEST MINNESOTA

CITY           SKY/WX    TMP DP  RH WIND       PRES   REMARKS
FAIRMONT       MOSUNNY    0  -8  71 NW13      30.44R WCI -18
JACKSON        SUNNY      0  -9  65 NW17G23   30.43S WCI -21
LUVERNE        SUNNY      1  -6  71 NW14      30.49R WCI -17
MARSHALL       SUNNY      0  -9  65 N17       30.50S WCI -21
MONTEVIDEO     SUNNY      1  -9  60 N12       30.53S WCI -15
PIPESTONE      PTSUNNY   -2  -8  78 N14       30.44R HAZE    WCI -21
REDWOOD FALLS  SUNNY      0 -11  59 N14G21    30.50R WCI -19
TRACY          SUNNY      0  -8  69 NW14      30.48R WCI -19
WINDOM         PTSUNNY   -2  -9  71 NW16      30.45R WCI -23
WORTHINGTON    MOSUNNY   23 -11  21 NW18      30.44R WCI   9
$$

IAZ001>003-012>014-020>022-031-032-NEZ013-014-SDZ071-261800-
NORTHWEST IOWA

CITY           SKY/WX    TMP DP  RH WIND       PRES   REMARKS
CHEROKEE       SUNNY      0  -8  68 N10       30.49R WCI -16
DENISON        SUNNY      0  -9  65 NW16      30.47R WCI -21
ESTHERVILLE    PTSUNNY   -2  -8  76 NW15      30.45R WCI -22
LE MARS        CLOUDY     1  -6  71 N16       30.53R WCI -18
ORANGE CITY    SUNNY      1  -8  66 N13G20    30.48R WCI -16
SHELDON        MOSUNNY    0 -11  60 N17       30.47R WCI -21
SIOUX CITY     SUNNY      5  -5  63 NW15      30.53S WCI -13
SPENCER        MOSUNNY    1  -9  62 NW16      30.47R WCI -19
STORM LAKE     SUNNY     -2 -11  65 N13       30.46R WCI -21
$$

ABBREVIATIONS USED IN REMARKS
   TC - TEMPERATURE IN CELSIUS
  WCI - WIND CHILL INDEX
   HX - HEAT INDEX
  VSB - VISIBILITY




USA.gov is the U.S. government's official web portal to all federal, state and local government web resources and services.